owner,sensor,date,latitude,longitude,air_temperature,qcFlag 
DISL,ioos:station:DISL:MHPA:1,2010-08-01T00:00:00Z,30.6671,-87.9365,33.56,1111122 
DISL,ioos:station:DISL:MHPA:1,2010-08-01T00:30:00Z,30.6671,-87.9365,33.39,1111122 
DISL,ioos:station:DISL:MHPA:1,2010-08-01T01:00:00Z,30.6671,-87.9365,32.71,1111122 
DISL,ioos:station:DISL:MHPA:1,2010-08-01T01:30:00Z,30.6671,-87.9365,32.42,1111122 
DISL,ioos:station:DISL:MHPA:1,2010-08-01T02:00:00Z,30.6671,-87.9365,32.4,1111122 
DISL,ioos:station:DISL:MHPA:1,2010-08-01T02:30:00Z,30.6671,-87.9365,32.16,1111122 
DISL,ioos:station:DISL:MHPA:1,2010-08-01T03:00:00Z,30.6671,-87.9365,32.26,1111122 
DISL,ioos:station:DISL:MHPA:1,2010-08-01T03:30:00Z,30.6671,-87.9365,32.41,1111122 
DISL,ioos:station:DISL:MHPA:1,2010-08-01T04:00:00Z,30.6671,-87.9365,32.28,1111122 
DISL,ioos:station:DISL:MHPA:1,2010-08-01T04:30:00Z,30.6671,-87.9365,31.94,1111122 
DISL,ioos:station:DISL:MHPA:1,2010-08-01T05:00:00Z,30.6671,-87.9365,31.64,1111122 
DISL,ioos:station:DISL:MHPA:1,2010-08-01T05:30:00Z,30.6671,-87.9365,31.15,1111122 
DISL,ioos:station:DISL:MHPA:1,2010-08-01T06:00:00Z,30.6671,-87.9365,30.84,1111122 
DISL,ioos:station:DISL:MHPA:1,2010-08-01T06:30:00Z,30.6671,-87.9365,30.33,1111122 
DISL,ioos:station:DISL:MHPA:1,2010-08-01T07:00:00Z,30.6671,-87.9365,29.92,1111122 
DISL,ioos:station:DISL:MHPA:1,2010-08-01T07:30:00Z,30.6671,-87.9365,29.54,1111122 
DISL,ioos:station:DISL:MHPA:1,2010-08-01T08:00:00Z,30.6671,-87.9365,29.11,1111122 
DISL,ioos:station:DISL:MHPA:1,2010-08-01T08:30:00Z,30.6671,-87.9365,28.91,1111122 
DISL,ioos:station:DISL:MHPA:1,2010-08-01T09:00:00Z,30.6671,-87.9365,28.63,1111122 
DISL,ioos:station:DISL:MHPA:1,2010-08-01T09:30:00Z,30.6671,-87.9365,28.5,1111122 
DISL,ioos:station:DISL:MHPA:1,2010-08-01T10:00:00Z,30.6671,-87.9365,28.27,1111122 
DISL,ioos:station:DISL:MHPA:1,2010-08-01T10:30:00Z,30.6671,-87.9365,28.09,1111122 
DISL,ioos:station:DISL:MHPA:1,2010-08-01T11:00:00Z,30.6671,-87.9365,27.75,1111122 
DISL,ioos:station:DISL:MHPA:1,2010-08-01T11:30:00Z,30.6671,-87.9365,27.71,1111122 
DISL,ioos:station:DISL:MHPA:1,2010-08-01T12:00:00Z,30.6671,-87.9365,28.06,1111122 
DISL,ioos:station:DISL:MHPA:1,2010-08-01T12:30:00Z,30.6671,-87.9365,29.31,1111122 
DISL,ioos:station:DISL:MHPA:1,2010-08-01T13:00:00Z,30.6671,-87.9365,29.77,1111122 
DISL,ioos:station:DISL:MHPA:1,2010-08-01T13:30:00Z,30.6671,-87.9365,30.32,1111122 
DISL,ioos:station:DISL:MHPA:1,2010-08-01T14:00:00Z,30.6671,-87.9365,31.01,1111122 
DISL,ioos:station:DISL:MHPA:1,2010-08-01T14:30:00Z,30.6671,-87.9365,31.78,1111122 
DISL,ioos:station:DISL:MHPA:1,2010-08-01T15:00:00Z,30.6671,-87.9365,32.54,1111122 
DISL,ioos:station:DISL:MHPA:1,2010-08-01T15:30:00Z,30.6671,-87.9365,33.15,1111122 
DISL,ioos:station:DISL:MHPA:1,2010-08-01T16:00:00Z,30.6671,-87.9365,33.42,1111122 
DISL,ioos:station:DISL:MHPA:1,2010-08-01T16:30:00Z,30.6671,-87.9365,33.81,1111122 
DISL,ioos:station:DISL:MHPA:1,2010-08-01T17:00:00Z,30.6671,-87.9365,34.37,1111122 
DISL,ioos:station:DISL:MHPA:1,2010-08-01T17:30:00Z,30.6671,-87.9365,35.02,1111122 
DISL,ioos:station:DISL:MHPA:1,2010-08-01T18:00:00Z,30.6671,-87.9365,35.41,1111122 
DISL,ioos:station:DISL:MHPA:1,2010-08-01T18:30:00Z,30.6671,-87.9365,35.9,1111122 
DISL,ioos:station:DISL:MHPA:1,2010-08-01T19:00:00Z,30.6671,-87.9365,35.99,1111122 
DISL,ioos:station:DISL:MHPA:1,2010-08-01T19:30:00Z,30.6671,-87.9365,35.97,1111122 
DISL,ioos:station:DISL:MHPA:1,2010-08-01T20:00:00Z,30.6671,-87.9365,36.61,1111122 
DISL,ioos:station:DISL:MHPA:1,2010-08-01T20:30:00Z,30.6671,-87.9365,36.65,1111122 
DISL,ioos:station:DISL:MHPA:1,2010-08-01T21:00:00Z,30.6671,-87.9365,35.93,1111122 
DISL,ioos:station:DISL:MHPA:1,2010-08-01T21:30:00Z,30.6671,-87.9365,36.1,1111122 
DISL,ioos:station:DISL:MHPA:1,2010-08-01T22:00:00Z,30.6671,-87.9365,36.46,1111122 
DISL,ioos:station:DISL:MHPA:1,2010-08-01T22:30:00Z,30.6671,-87.9365,34.64,1111122 
DISL,ioos:station:DISL:MHPA:1,2010-08-01T23:00:00Z,30.6671,-87.9365,34.66,1111122 
DISL,ioos:station:DISL:MHPA:1,2010-08-01T23:30:00Z,30.6671,-87.9365,34.55,1111122 
DISL,ioos:station:DISL:MHPA:1,2010-08-02T00:00:00Z,30.6671,-87.9365,34.67,1111122 
DISL,ioos:station:DISL:MHPA:1,2010-08-02T00:30:00Z,30.6671,-87.9365,34.19,1111122 
DISL,ioos:station:DISL:MHPA:1,2010-08-02T01:00:00Z,30.6671,-87.9365,33.9,1111122 
DISL,ioos:station:DISL:MHPA:1,2010-08-02T01:30:00Z,30.6671,-87.9365,33.29,1111122 
DISL,ioos:station:DISL:MHPA:1,2010-08-02T02:00:00Z,30.6671,-87.9365,32.89,1111122 
DISL,ioos:station:DISL:MHPA:1,2010-08-02T02:30:00Z,30.6671,-87.9365,32.71,1111122 
DISL,ioos:station:DISL:MHPA:1,2010-08-02T03:00:00Z,30.6671,-87.9365,32.61,1111122 
DISL,ioos:station:DISL:MHPA:1,2010-08-02T03:30:00Z,30.6671,-87.9365,32.17,1111122 
DISL,ioos:station:DISL:MHPA:1,2010-08-02T04:00:00Z,30.6671,-87.9365,32.17,1111122 
DISL,ioos:station:DISL:MHPA:1,2010-08-02T04:30:00Z,30.6671,-87.9365,31.96,1111122 
DISL,ioos:station:DISL:MHPA:1,2010-08-02T05:00:00Z,30.6671,-87.9365,31.72,1111122 
DISL,ioos:station:DISL:MHPA:1,2010-08-02T05:30:00Z,30.6671,-87.9365,31.69,1111122 
DISL,ioos:station:DISL:MHPA:1,2010-08-02T06:00:00Z,30.6671,-87.9365,31.56,1111122 
DISL,ioos:station:DISL:MHPA:1,2010-08-02T06:30:00Z,30.6671,-87.9365,31.51,1111122 
DISL,ioos:station:DISL:MHPA:1,2010-08-02T07:00:00Z,30.6671,-87.9365,31.4,1111122 
DISL,ioos:station:DISL:MHPA:1,2010-08-02T07:30:00Z,30.6671,-87.9365,31.26,1111122 
DISL,ioos:station:DISL:MHPA:1,2010-08-02T08:00:00Z,30.6671,-87.9365,31.26,1111122 
DISL,ioos:station:DISL:MHPA:1,2010-08-02T08:30:00Z,30.6671,-87.9365,31.18,1111122 
DISL,ioos:station:DISL:MHPA:1,2010-08-02T09:00:00Z,30.6671,-87.9365,31.06,1111122 
DISL,ioos:station:DISL:MHPA:1,2010-08-02T09:30:00Z,30.6671,-87.9365,30.75,1111122 
DISL,ioos:station:DISL:MHPA:1,2010-08-02T10:00:00Z,30.6671,-87.9365,30.24,1111122 
DISL,ioos:station:DISL:MHPA:1,2010-08-02T10:30:00Z,30.6671,-87.9365,30.12,1111122 
DISL,ioos:station:DISL:MHPA:1,2010-08-02T11:00:00Z,30.6671,-87.9365,29.67,1111122 
DISL,ioos:station:DISL:MHPA:1,2010-08-02T11:30:00Z,30.6671,-87.9365,29.74,1111122 
DISL,ioos:station:DISL:MHPA:1,2010-08-02T12:00:00Z,30.6671,-87.9365,30.27,1111122 
DISL,ioos:station:DISL:MHPA:1,2010-08-02T12:30:00Z,30.6671,-87.9365,31.1,1111122 
DISL,ioos:station:DISL:MHPA:1,2010-08-02T13:00:00Z,30.6671,-87.9365,31.97,1111122 
DISL,ioos:station:DISL:MHPA:1,2010-08-02T13:30:00Z,30.6671,-87.9365,31.39,1111122 
DISL,ioos:station:DISL:MHPA:1,2010-08-02T14:00:00Z,30.6671,-87.9365,31.69,1111122 
DISL,ioos:station:DISL:MHPA:1,2010-08-02T14:30:00Z,30.6671,-87.9365,32.37,1111122 
DISL,ioos:station:DISL:MHPA:1,2010-08-02T15:00:00Z,30.6671,-87.9365,33.17,1111122 
DISL,ioos:station:DISL:MHPA:1,2010-08-02T15:30:00Z,30.6671,-87.9365,33.22,1111122 
DISL,ioos:station:DISL:MHPA:1,2010-08-02T16:00:00Z,30.6671,-87.9365,33.93,1111122 
DISL,ioos:station:DISL:MHPA:1,2010-08-02T16:30:00Z,30.6671,-87.9365,34.38,1111122 
DISL,ioos:station:DISL:MHPA:1,2010-08-02T17:00:00Z,30.6671,-87.9365,35.16,1111122 
DISL,ioos:station:DISL:MHPA:1,2010-08-02T17:30:00Z,30.6671,-87.9365,36.15,1111122 
DISL,ioos:station:DISL:MHPA:1,2010-08-02T18:00:00Z,30.6671,-87.9365,34.97,1111122 
DISL,ioos:station:DISL:MHPA:1,2010-08-02T18:30:00Z,30.6671,-87.9365,35.27,1111122 
DISL,ioos:station:DISL:MHPA:1,2010-08-02T19:00:00Z,30.6671,-87.9365,35.47,1111122 
DISL,ioos:station:DISL:MHPA:1,2010-08-02T19:30:00Z,30.6671,-87.9365,33.16,1111122 
DISL,ioos:station:DISL:MHPA:1,2010-08-02T20:00:00Z,30.6671,-87.9365,27.23,1111122 
DISL,ioos:station:DISL:MHPA:1,2010-08-02T20:30:00Z,30.6671,-87.9365,27.41,1111122 
DISL,ioos:station:DISL:MHPA:1,2010-08-02T21:00:00Z,30.6671,-87.9365,28.04,1111122 
DISL,ioos:station:DISL:MHPA:1,2010-08-02T21:30:00Z,30.6671,-87.9365,28.15,1111122 
DISL,ioos:station:DISL:MHPA:1,2010-08-02T22:00:00Z,30.6671,-87.9365,26.61,1111122 
DISL,ioos:station:DISL:MHPA:1,2010-08-02T22:30:00Z,30.6671,-87.9365,27.0,1111122 
DISL,ioos:station:DISL:MHPA:1,2010-08-02T23:00:00Z,30.6671,-87.9365,26.57,1111122 
DISL,ioos:station:DISL:MHPA:1,2010-08-02T23:30:00Z,30.6671,-87.9365,27.25,1111122 
DISL,ioos:station:DISL:MHPA:1,2010-08-03T00:00:00Z,30.6671,-87.9365,26.46,1111122 
DISL,ioos:station:DISL:MHPA:1,2010-08-03T00:30:00Z,30.6671,-87.9365,26.02,1111122 
DISL,ioos:station:DISL:MHPA:1,2010-08-03T01:00:00Z,30.6671,-87.9365,26.39,1111122 
DISL,ioos:station:DISL:MHPA:1,2010-08-03T01:30:00Z,30.6671,-87.9365,26.88,1111122 
DISL,ioos:station:DISL:MHPA:1,2010-08-03T02:00:00Z,30.6671,-87.9365,26.55,1111122 
DISL,ioos:station:DISL:MHPA:1,2010-08-03T02:30:00Z,30.6671,-87.9365,26.39,1111122 
DISL,ioos:station:DISL:MHPA:1,2010-08-03T03:00:00Z,30.6671,-87.9365,26.46,1111122 
DISL,ioos:station:DISL:MHPA:1,2010-08-03T03:30:00Z,30.6671,-87.9365,26.35,1111122 
DISL,ioos:station:DISL:MHPA:1,2010-08-03T04:00:00Z,30.6671,-87.9365,26.53,1111122 
DISL,ioos:station:DISL:MHPA:1,2010-08-03T04:30:00Z,30.6671,-87.9365,26.5,1111122 
DISL,ioos:station:DISL:MHPA:1,2010-08-03T05:00:00Z,30.6671,-87.9365,26.4,1111122 
DISL,ioos:station:DISL:MHPA:1,2010-08-03T05:30:00Z,30.6671,-87.9365,26.3,1111122 
DISL,ioos:station:DISL:MHPA:1,2010-08-03T06:00:00Z,30.6671,-87.9365,26.51,1111122 
DISL,ioos:station:DISL:MHPA:1,2010-08-03T06:30:00Z,30.6671,-87.9365,26.64,1111122 
DISL,ioos:station:DISL:MHPA:1,2010-08-03T07:00:00Z,30.6671,-87.9365,26.95,1111122 
DISL,ioos:station:DISL:MHPA:1,2010-08-03T07:30:00Z,30.6671,-87.9365,27.05,1111122 
DISL,ioos:station:DISL:MHPA:1,2010-08-03T08:00:00Z,30.6671,-87.9365,26.95,1111122 
DISL,ioos:station:DISL:MHPA:1,2010-08-03T08:30:00Z,30.6671,-87.9365,27.11,1111122 
DISL,ioos:station:DISL:MHPA:1,2010-08-03T09:00:00Z,30.6671,-87.9365,27.23,1111122 
DISL,ioos:station:DISL:MHPA:1,2010-08-03T09:30:00Z,30.6671,-87.9365,27.32,1111122 
DISL,ioos:station:DISL:MHPA:1,2010-08-03T10:00:00Z,30.6671,-87.9365,27.41,1111122 
DISL,ioos:station:DISL:MHPA:1,2010-08-03T10:30:00Z,30.6671,-87.9365,27.37,1111122 
DISL,ioos:station:DISL:MHPA:1,2010-08-03T11:00:00Z,30.6671,-87.9365,27.51,1111122 
DISL,ioos:station:DISL:MHPA:1,2010-08-03T11:30:00Z,30.6671,-87.9365,27.54,1111122 
DISL,ioos:station:DISL:MHPA:1,2010-08-03T12:00:00Z,30.6671,-87.9365,27.78,1111122 
DISL,ioos:station:DISL:MHPA:1,2010-08-03T12:30:00Z,30.6671,-87.9365,28.5,1111122 
DISL,ioos:station:DISL:MHPA:1,2010-08-03T13:00:00Z,30.6671,-87.9365,28.73,1111122 
DISL,ioos:station:DISL:MHPA:1,2010-08-03T13:30:00Z,30.6671,-87.9365,29.67,1111122 
DISL,ioos:station:DISL:MHPA:1,2010-08-03T14:00:00Z,30.6671,-87.9365,31.27,1111122 
DISL,ioos:station:DISL:MHPA:1,2010-08-03T14:30:00Z,30.6671,-87.9365,32.02,1111122 
DISL,ioos:station:DISL:MHPA:1,2010-08-03T15:00:00Z,30.6671,-87.9365,31.24,1111122 
DISL,ioos:station:DISL:MHPA:1,2010-08-03T15:30:00Z,30.6671,-87.9365,32.03,1111122 
DISL,ioos:station:DISL:MHPA:1,2010-08-03T16:00:00Z,30.6671,-87.9365,32.63,1111122 
DISL,ioos:station:DISL:MHPA:1,2010-08-03T16:30:00Z,30.6671,-87.9365,32.07,1111122 
DISL,ioos:station:DISL:MHPA:1,2010-08-03T17:00:00Z,30.6671,-87.9365,30.24,1111122 
DISL,ioos:station:DISL:MHPA:1,2010-08-03T17:30:00Z,30.6671,-87.9365,29.26,1111122 
DISL,ioos:station:DISL:MHPA:1,2010-08-03T18:00:00Z,30.6671,-87.9365,28.64,1111122 
DISL,ioos:station:DISL:MHPA:1,2010-08-03T18:30:00Z,30.6671,-87.9365,28.61,1111122 
DISL,ioos:station:DISL:MHPA:1,2010-08-03T19:00:00Z,30.6671,-87.9365,28.3,1111122 
DISL,ioos:station:DISL:MHPA:1,2010-08-03T19:30:00Z,30.6671,-87.9365,28.56,1111122 
DISL,ioos:station:DISL:MHPA:1,2010-08-03T20:00:00Z,30.6671,-87.9365,28.6,1111122 
DISL,ioos:station:DISL:MHPA:1,2010-08-03T20:30:00Z,30.6671,-87.9365,29.2,1111122 
DISL,ioos:station:DISL:MHPA:1,2010-08-03T21:00:00Z,30.6671,-87.9365,29.85,1111122 
DISL,ioos:station:DISL:MHPA:1,2010-08-03T21:30:00Z,30.6671,-87.9365,30.49,1111122 
DISL,ioos:station:DISL:MHPA:1,2010-08-03T22:00:00Z,30.6671,-87.9365,31.07,1111122 
DISL,ioos:station:DISL:MHPA:1,2010-08-03T22:30:00Z,30.6671,-87.9365,31.09,1111122 
DISL,ioos:station:DISL:MHPA:1,2010-08-03T23:00:00Z,30.6671,-87.9365,31.16,1111122 
DISL,ioos:station:DISL:MHPA:1,2010-08-03T23:30:00Z,30.6671,-87.9365,31.41,1111122 
DISL,ioos:station:DISL:MHPA:1,2010-08-04T00:00:00Z,30.6671,-87.9365,31.19,1111122 
DISL,ioos:station:DISL:MHPA:1,2010-08-04T00:30:00Z,30.6671,-87.9365,31.39,1111122 
DISL,ioos:station:DISL:MHPA:1,2010-08-04T01:00:00Z,30.6671,-87.9365,31.03,1111122 
DISL,ioos:station:DISL:MHPA:1,2010-08-04T01:30:00Z,30.6671,-87.9365,30.65,1111122 
DISL,ioos:station:DISL:MHPA:1,2010-08-04T02:00:00Z,30.6671,-87.9365,30.5,1111122 
DISL,ioos:station:DISL:MHPA:1,2010-08-04T02:30:00Z,30.6671,-87.9365,30.3,1111122 
DISL,ioos:station:DISL:MHPA:1,2010-08-04T03:00:00Z,30.6671,-87.9365,30.23,1111122 
DISL,ioos:station:DISL:MHPA:1,2010-08-04T03:30:00Z,30.6671,-87.9365,30.16,1111122 
DISL,ioos:station:DISL:MHPA:1,2010-08-04T04:00:00Z,30.6671,-87.9365,30.25,1111122 
DISL,ioos:station:DISL:MHPA:1,2010-08-04T04:30:00Z,30.6671,-87.9365,30.21,1111122 
DISL,ioos:station:DISL:MHPA:1,2010-08-04T05:00:00Z,30.6671,-87.9365,30.17,1111122 
DISL,ioos:station:DISL:MHPA:1,2010-08-04T05:30:00Z,30.6671,-87.9365,30.3,1111122 
DISL,ioos:station:DISL:MHPA:1,2010-08-04T06:00:00Z,30.6671,-87.9365,30.01,1111122 
DISL,ioos:station:DISL:MHPA:1,2010-08-04T06:30:00Z,30.6671,-87.9365,30.03,1111122 
DISL,ioos:station:DISL:MHPA:1,2010-08-04T07:00:00Z,30.6671,-87.9365,30.0,1111122 
DISL,ioos:station:DISL:MHPA:1,2010-08-04T07:30:00Z,30.6671,-87.9365,30.0,1111122 
DISL,ioos:station:DISL:MHPA:1,2010-08-04T08:00:00Z,30.6671,-87.9365,29.67,1111122 
DISL,ioos:station:DISL:MHPA:1,2010-08-04T08:30:00Z,30.6671,-87.9365,29.49,1111122 
DISL,ioos:station:DISL:MHPA:1,2010-08-04T09:00:00Z,30.6671,-87.9365,29.36,1111122 
DISL,ioos:station:DISL:MHPA:1,2010-08-04T09:30:00Z,30.6671,-87.9365,29.11,1111122 
DISL,ioos:station:DISL:MHPA:1,2010-08-04T10:00:00Z,30.6671,-87.9365,28.88,1111122 
DISL,ioos:station:DISL:MHPA:1,2010-08-04T10:30:00Z,30.6671,-87.9365,28.66,1111122 
DISL,ioos:station:DISL:MHPA:1,2010-08-04T11:00:00Z,30.6671,-87.9365,28.7,1111122 
DISL,ioos:station:DISL:MHPA:1,2010-08-04T11:30:00Z,30.6671,-87.9365,28.67,1111122 
DISL,ioos:station:DISL:MHPA:1,2010-08-04T12:00:00Z,30.6671,-87.9365,29.14,1111122 
DISL,ioos:station:DISL:MHPA:1,2010-08-04T12:30:00Z,30.6671,-87.9365,29.79,1111122 
DISL,ioos:station:DISL:MHPA:1,2010-08-04T13:00:00Z,30.6671,-87.9365,30.04,1111122 
DISL,ioos:station:DISL:MHPA:1,2010-08-04T13:30:00Z,30.6671,-87.9365,30.12,1111122 
DISL,ioos:station:DISL:MHPA:1,2010-08-04T14:00:00Z,30.6671,-87.9365,31.15,1111122 
DISL,ioos:station:DISL:MHPA:1,2010-08-04T14:30:00Z,30.6671,-87.9365,31.08,1111122 
DISL,ioos:station:DISL:MHPA:1,2010-08-04T15:00:00Z,30.6671,-87.9365,31.06,1111122 
DISL,ioos:station:DISL:MHPA:1,2010-08-04T15:30:00Z,30.6671,-87.9365,29.07,1111122 
DISL,ioos:station:DISL:MHPA:1,2010-08-04T16:00:00Z,30.6671,-87.9365,28.35,1111122 
DISL,ioos:station:DISL:MHPA:1,2010-08-04T16:30:00Z,30.6671,-87.9365,28.75,1111122 
DISL,ioos:station:DISL:MHPA:1,2010-08-04T17:00:00Z,30.6671,-87.9365,31.05,1111122 
DISL,ioos:station:DISL:MHPA:1,2010-08-04T17:30:00Z,30.6671,-87.9365,30.08,1111122 
DISL,ioos:station:DISL:MHPA:1,2010-08-04T18:00:00Z,30.6671,-87.9365,29.73,1111122 
DISL,ioos:station:DISL:MHPA:1,2010-08-04T18:30:00Z,30.6671,-87.9365,30.27,1111122 
DISL,ioos:station:DISL:MHPA:1,2010-08-04T19:00:00Z,30.6671,-87.9365,30.33,1111122 
DISL,ioos:station:DISL:MHPA:1,2010-08-04T19:30:00Z,30.6671,-87.9365,30.5,1111122 
DISL,ioos:station:DISL:MHPA:1,2010-08-04T20:00:00Z,30.6671,-87.9365,30.92,1111122 
DISL,ioos:station:DISL:MHPA:1,2010-08-04T20:30:00Z,30.6671,-87.9365,31.1,1111122 
DISL,ioos:station:DISL:MHPA:1,2010-08-04T21:00:00Z,30.6671,-87.9365,31.07,1111122 
DISL,ioos:station:DISL:MHPA:1,2010-08-04T21:30:00Z,30.6671,-87.9365,30.0,1111122 
DISL,ioos:station:DISL:MHPA:1,2010-08-04T22:00:00Z,30.6671,-87.9365,29.59,1111122 
DISL,ioos:station:DISL:MHPA:1,2010-08-04T22:30:00Z,30.6671,-87.9365,28.21,1111122 
DISL,ioos:station:DISL:MHPA:1,2010-08-04T23:00:00Z,30.6671,-87.9365,28.22,1111122 
DISL,ioos:station:DISL:MHPA:1,2010-08-04T23:30:00Z,30.6671,-87.9365,27.74,1111122 
DISL,ioos:station:DISL:MHPA:1,2010-08-05T00:00:00Z,30.6671,-87.9365,27.77,1111122 
DISL,ioos:station:DISL:MHPA:1,2010-08-05T00:30:00Z,30.6671,-87.9365,27.64,1111122 
DISL,ioos:station:DISL:MHPA:1,2010-08-05T01:00:00Z,30.6671,-87.9365,26.9,1111122 
DISL,ioos:station:DISL:MHPA:1,2010-08-05T01:30:00Z,30.6671,-87.9365,26.92,1111122 
DISL,ioos:station:DISL:MHPA:1,2010-08-05T02:00:00Z,30.6671,-87.9365,26.68,1111122 
DISL,ioos:station:DISL:MHPA:1,2010-08-05T02:30:00Z,30.6671,-87.9365,26.82,1111122 
DISL,ioos:station:DISL:MHPA:1,2010-08-05T03:00:00Z,30.6671,-87.9365,26.75,1111122 
DISL,ioos:station:DISL:MHPA:1,2010-08-05T03:30:00Z,30.6671,-87.9365,26.69,1111122 
DISL,ioos:station:DISL:MHPA:1,2010-08-05T04:00:00Z,30.6671,-87.9365,26.5,1111122 
DISL,ioos:station:DISL:MHPA:1,2010-08-05T04:30:00Z,30.6671,-87.9365,26.13,1111122 
DISL,ioos:station:DISL:MHPA:1,2010-08-05T05:00:00Z,30.6671,-87.9365,26.22,1111122 
DISL,ioos:station:DISL:MHPA:1,2010-08-05T05:30:00Z,30.6671,-87.9365,26.94,1111122 
DISL,ioos:station:DISL:MHPA:1,2010-08-05T06:00:00Z,30.6671,-87.9365,26.75,1111122 
DISL,ioos:station:DISL:MHPA:1,2010-08-05T06:30:00Z,30.6671,-87.9365,25.95,1111122 
DISL,ioos:station:DISL:MHPA:1,2010-08-05T07:00:00Z,30.6671,-87.9365,25.77,1111122 
DISL,ioos:station:DISL:MHPA:1,2010-08-05T07:30:00Z,30.6671,-87.9365,26.4,1111122 
DISL,ioos:station:DISL:MHPA:1,2010-08-05T08:00:00Z,30.6671,-87.9365,26.32,1111122 
DISL,ioos:station:DISL:MHPA:1,2010-08-05T08:30:00Z,30.6671,-87.9365,26.23,1111122 
DISL,ioos:station:DISL:MHPA:1,2010-08-05T09:00:00Z,30.6671,-87.9365,25.42,1111122 
DISL,ioos:station:DISL:MHPA:1,2010-08-05T09:30:00Z,30.6671,-87.9365,25.14,1111122 
DISL,ioos:station:DISL:MHPA:1,2010-08-05T10:00:00Z,30.6671,-87.9365,25.03,1111122 
DISL,ioos:station:DISL:MHPA:1,2010-08-05T10:30:00Z,30.6671,-87.9365,24.87,1111122 
DISL,ioos:station:DISL:MHPA:1,2010-08-05T11:00:00Z,30.6671,-87.9365,25.07,1111122 
DISL,ioos:station:DISL:MHPA:1,2010-08-05T11:30:00Z,30.6671,-87.9365,25.1,1111122 
DISL,ioos:station:DISL:MHPA:1,2010-08-05T12:00:00Z,30.6671,-87.9365,25.46,1111122 
DISL,ioos:station:DISL:MHPA:1,2010-08-05T12:30:00Z,30.6671,-87.9365,25.78,1111122 
DISL,ioos:station:DISL:MHPA:1,2010-08-05T13:00:00Z,30.6671,-87.9365,28.32,1111122 
DISL,ioos:station:DISL:MHPA:1,2010-08-05T13:30:00Z,30.6671,-87.9365,28.55,1111122 
DISL,ioos:station:DISL:MHPA:1,2010-08-05T14:00:00Z,30.6671,-87.9365,29.39,1111122 
DISL,ioos:station:DISL:MHPA:1,2010-08-05T14:30:00Z,30.6671,-87.9365,29.43,1111122 
DISL,ioos:station:DISL:MHPA:1,2010-08-05T15:00:00Z,30.6671,-87.9365,29.39,1111122 
DISL,ioos:station:DISL:MHPA:1,2010-08-05T15:30:00Z,30.6671,-87.9365,29.82,1111122 
DISL,ioos:station:DISL:MHPA:1,2010-08-05T16:00:00Z,30.6671,-87.9365,29.95,1111122 
DISL,ioos:station:DISL:MHPA:1,2010-08-05T16:30:00Z,30.6671,-87.9365,30.07,1111122 
DISL,ioos:station:DISL:MHPA:1,2010-08-05T17:00:00Z,30.6671,-87.9365,30.12,1111122 
DISL,ioos:station:DISL:MHPA:1,2010-08-05T17:30:00Z,30.6671,-87.9365,30.1,1111122 
DISL,ioos:station:DISL:MHPA:1,2010-08-05T18:00:00Z,30.6671,-87.9365,30.55,1111122 
DISL,ioos:station:DISL:MHPA:1,2010-08-05T18:30:00Z,30.6671,-87.9365,30.33,1111122 
DISL,ioos:station:DISL:MHPA:1,2010-08-05T19:00:00Z,30.6671,-87.9365,30.4,1111122 
DISL,ioos:station:DISL:MHPA:1,2010-08-05T19:30:00Z,30.6671,-87.9365,30.3,1111122 
DISL,ioos:station:DISL:MHPA:1,2010-08-05T20:00:00Z,30.6671,-87.9365,30.36,1111122 
DISL,ioos:station:DISL:MHPA:1,2010-08-05T20:30:00Z,30.6671,-87.9365,30.35,1111122 
DISL,ioos:station:DISL:MHPA:1,2010-08-05T21:00:00Z,30.6671,-87.9365,30.54,1111122 
DISL,ioos:station:DISL:MHPA:1,2010-08-05T21:30:00Z,30.6671,-87.9365,30.64,1111122 
DISL,ioos:station:DISL:MHPA:1,2010-08-05T22:00:00Z,30.6671,-87.9365,30.62,1111122 
DISL,ioos:station:DISL:MHPA:1,2010-08-05T22:30:00Z,30.6671,-87.9365,30.59,1111122 
DISL,ioos:station:DISL:MHPA:1,2010-08-05T23:00:00Z,30.6671,-87.9365,30.58,1111122 
DISL,ioos:station:DISL:MHPA:1,2010-08-05T23:30:00Z,30.6671,-87.9365,30.56,1111122 
DISL,ioos:station:DISL:MHPA:1,2010-08-06T00:00:00Z,30.6671,-87.9365,30.47,1111122 
DISL,ioos:station:DISL:MHPA:1,2010-08-06T00:30:00Z,30.6671,-87.9365,29.29,1111122 
DISL,ioos:station:DISL:MHPA:1,2010-08-06T01:00:00Z,30.6671,-87.9365,28.62,1111122 
DISL,ioos:station:DISL:MHPA:1,2010-08-06T01:30:00Z,30.6671,-87.9365,28.62,1111122 
DISL,ioos:station:DISL:MHPA:1,2010-08-06T02:00:00Z,30.6671,-87.9365,28.29,1111122 
DISL,ioos:station:DISL:MHPA:1,2010-08-06T02:30:00Z,30.6671,-87.9365,27.92,1111122 
DISL,ioos:station:DISL:MHPA:1,2010-08-06T03:00:00Z,30.6671,-87.9365,26.96,1111122 
DISL,ioos:station:DISL:MHPA:1,2010-08-06T03:30:00Z,30.6671,-87.9365,26.85,1111122 
DISL,ioos:station:DISL:MHPA:1,2010-08-06T04:00:00Z,30.6671,-87.9365,26.89,1111122 
DISL,ioos:station:DISL:MHPA:1,2010-08-06T04:30:00Z,30.6671,-87.9365,27.01,1111122 
DISL,ioos:station:DISL:MHPA:1,2010-08-06T05:00:00Z,30.6671,-87.9365,27.18,1111122 
DISL,ioos:station:DISL:MHPA:1,2010-08-06T05:30:00Z,30.6671,-87.9365,27.03,1111122 
DISL,ioos:station:DISL:MHPA:1,2010-08-06T06:00:00Z,30.6671,-87.9365,26.66,1111122 
DISL,ioos:station:DISL:MHPA:1,2010-08-06T06:30:00Z,30.6671,-87.9365,26.84,1111122 
DISL,ioos:station:DISL:MHPA:1,2010-08-06T07:00:00Z,30.6671,-87.9365,26.71,1111122 
DISL,ioos:station:DISL:MHPA:1,2010-08-06T07:30:00Z,30.6671,-87.9365,26.75,1111122 
DISL,ioos:station:DISL:MHPA:1,2010-08-06T08:00:00Z,30.6671,-87.9365,26.05,1111122 
DISL,ioos:station:DISL:MHPA:1,2010-08-06T08:30:00Z,30.6671,-87.9365,26.17,1111122 
DISL,ioos:station:DISL:MHPA:1,2010-08-06T09:00:00Z,30.6671,-87.9365,26.4,1111122 
DISL,ioos:station:DISL:MHPA:1,2010-08-06T09:30:00Z,30.6671,-87.9365,26.39,1111122 
DISL,ioos:station:DISL:MHPA:1,2010-08-06T10:00:00Z,30.6671,-87.9365,26.24,1111122 
DISL,ioos:station:DISL:MHPA:1,2010-08-06T10:30:00Z,30.6671,-87.9365,26.24,1111122 
DISL,ioos:station:DISL:MHPA:1,2010-08-06T11:00:00Z,30.6671,-87.9365,26.13,1111122 
DISL,ioos:station:DISL:MHPA:1,2010-08-06T11:30:00Z,30.6671,-87.9365,26.02,1111122 
DISL,ioos:station:DISL:MHPA:1,2010-08-06T12:00:00Z,30.6671,-87.9365,26.53,1111122 
DISL,ioos:station:DISL:MHPA:1,2010-08-06T12:30:00Z,30.6671,-87.9365,26.49,1111122 
DISL,ioos:station:DISL:MHPA:1,2010-08-06T13:00:00Z,30.6671,-87.9365,26.94,1111122 
DISL,ioos:station:DISL:MHPA:1,2010-08-06T13:30:00Z,30.6671,-87.9365,27.68,1111122 
DISL,ioos:station:DISL:MHPA:1,2010-08-06T14:00:00Z,30.6671,-87.9365,27.62,1111122 
DISL,ioos:station:DISL:MHPA:1,2010-08-06T14:30:00Z,30.6671,-87.9365,28.66,1111122 
DISL,ioos:station:DISL:MHPA:1,2010-08-06T15:00:00Z,30.6671,-87.9365,29.35,1111122 
DISL,ioos:station:DISL:MHPA:1,2010-08-06T15:30:00Z,30.6671,-87.9365,29.78,1111122 
DISL,ioos:station:DISL:MHPA:1,2010-08-06T16:00:00Z,30.6671,-87.9365,29.65,1111122 
DISL,ioos:station:DISL:MHPA:1,2010-08-06T16:30:00Z,30.6671,-87.9365,29.55,1111122 
DISL,ioos:station:DISL:MHPA:1,2010-08-06T17:00:00Z,30.6671,-87.9365,30.35,1111122 
DISL,ioos:station:DISL:MHPA:1,2010-08-06T17:30:00Z,30.6671,-87.9365,30.88,1111122 
DISL,ioos:station:DISL:MHPA:1,2010-08-06T18:00:00Z,30.6671,-87.9365,30.98,1111122 
DISL,ioos:station:DISL:MHPA:1,2010-08-06T18:30:00Z,30.6671,-87.9365,30.78,1111122 
DISL,ioos:station:DISL:MHPA:1,2010-08-06T19:00:00Z,30.6671,-87.9365,31.39,1111122 
DISL,ioos:station:DISL:MHPA:1,2010-08-06T19:30:00Z,30.6671,-87.9365,31.84,1111122 
DISL,ioos:station:DISL:MHPA:1,2010-08-06T20:00:00Z,30.6671,-87.9365,31.9,1111122 
DISL,ioos:station:DISL:MHPA:1,2010-08-06T20:30:00Z,30.6671,-87.9365,31.91,1111122 
DISL,ioos:station:DISL:MHPA:1,2010-08-06T21:00:00Z,30.6671,-87.9365,31.54,1111122 
DISL,ioos:station:DISL:MHPA:1,2010-08-06T21:30:00Z,30.6671,-87.9365,31.48,1111122 
DISL,ioos:station:DISL:MHPA:1,2010-08-06T22:00:00Z,30.6671,-87.9365,31.41,1111122 
DISL,ioos:station:DISL:MHPA:1,2010-08-06T22:30:00Z,30.6671,-87.9365,31.34,1111122 
DISL,ioos:station:DISL:MHPA:1,2010-08-06T23:00:00Z,30.6671,-87.9365,31.12,1111122 
DISL,ioos:station:DISL:MHPA:1,2010-08-06T23:30:00Z,30.6671,-87.9365,31.28,1111122 